Weather History for KMSS - December, 2013

Change the Weather History Date:

Sunday, December 29, 2013

  Actual Average Record
Temperature  
Mean Temperature 28 °F 17 °F  
Max Temperature 36 °F 26 °F 53 °F (1984)
Min Temperature 20 °F 8 °F -27 °F (1989)
Degree Days  
Heating Degree Days 37 48  
Month to date heating degree days 1341 1233  
Since 1 July heating degree days 3092 3002  
Cooling Degree Days 0 0  
Month to date cooling degree days 0  
Year to date cooling degree days 363  
Moisture  
Dew Point 23 °F    
Average Humidity 89    
Maximum Humidity 96    
Minimum Humidity 82    
Precipitation  
Precipitation 0.00 in 0.08 in 0.66 in (1948)
Month to date precipitation 1.62 2.29  
Year to date precipitation 35.50 34.82  
Sea Level Pressure  
Sea Level Pressure 29.77 in    
Wind  
Wind Speed 7 mph (ENE)    
Max Wind Speed 16 mph    
Max Gust Speed 20 mph    
Visibility 7 miles    
Events      
T = Trace of Precipitation, MM = Missing Value Source: NWS Daily Summary

Daily Weather History Graph

Daily Weather History Graph

Search for Another Location

Airport or City:

Trip Planner

Search our weather history database for the weather conditions in past years. The results will help you decide how hot, cold, wet, or windy it might be!

Date:

Astronomy

Dec. 29, 2013 Rise Set
Actual Time 7:37 AM EST 4:26 PM EST
Civil Twilight 7:03 AM EST 4:59 PM EST
Nautical Twilight 6:26 AM EST 5:37 PM EST
Astronomical Twilight 5:50 AM EST 6:12 PM EST
Moon 4:14 AM EST (12/29) 2:05 PM EST (12/29)
Length of Visible Light 9h 56m
Length of Day
8h 49m
Waning Crescent, 11% of the Moon is Illuminated
Dec 29
Waning Crescent
Jan 1
New
Jan 7
First Quarter
Jan 15
Full
Jan 24
Last Quarter

Hourly Weather History & Observations

Time (EST) Temp. Windchill Dew Point Humidity Pressure Visibility Wind Dir Wind Speed Gust Speed Precip Events Conditions
12:53 AM 35.1 °F 32.2 °F 30.9 °F 85% 29.96 in 6.0 mi SW 3.5 mph - N/A   Overcast
1:53 AM 36.0 °F - 32.0 °F 86% 29.96 in 6.0 mi Calm Calm - N/A   Overcast
2:53 AM 34.0 °F - 32.0 °F 92% 29.96 in 5.0 mi Calm Calm - N/A   Overcast
3:53 AM 34.0 °F - 32.0 °F 92% 29.94 in 5.0 mi Calm Calm - N/A   Overcast
4:53 AM 35.1 °F - 30.9 °F 85% 29.93 in 5.0 mi Calm Calm - N/A   Overcast
5:53 AM 33.1 °F - 30.9 °F 92% 29.91 in 4.0 mi Calm Calm - N/A   Overcast
6:53 AM 33.1 °F 30.0 °F 30.0 °F 89% 29.89 in 4.0 mi NE 3.5 mph - N/A   Partly Cloudy
7:53 AM 32.0 °F 22.1 °F 28.9 °F 88% 29.89 in 4.0 mi ENE 13.8 mph - N/A   Mostly Cloudy
8:04 AM 30.2 °F 21.9 °F 28.4 °F 93% 29.88 in 5.0 mi NE 9.2 mph - N/A   Mostly Cloudy
8:13 AM 28.4 °F 18.0 °F 26.6 °F 93% 29.88 in 6.0 mi NE 12.7 mph - N/A   Overcast
8:53 AM 28.0 °F 18.1 °F 25.0 °F 88% 29.90 in 7.0 mi ENE 11.5 mph - N/A   Overcast
9:53 AM 27.0 °F 16.7 °F 24.1 °F 89% 29.86 in 6.0 mi ENE 11.5 mph - N/A   Overcast
10:53 AM 26.1 °F 15.6 °F 24.1 °F 92% 29.86 in 6.0 mi ENE 11.5 mph - N/A   Overcast
11:53 AM 25.0 °F 14.8 °F 23.0 °F 92% 29.80 in 6.0 mi ENE 10.4 mph - N/A   Overcast
12:53 PM 25.0 °F 13.1 °F 21.9 °F 88% 29.77 in 7.0 mi ENE 13.8 mph - N/A   Overcast
1:53 PM 24.1 °F 12.5 °F 21.0 °F 88% 29.74 in 7.0 mi ENE 12.7 mph - N/A   Overcast
2:53 PM 24.1 °F 13.1 °F 21.0 °F 88% 29.71 in 6.0 mi ENE 11.5 mph - N/A   Overcast
3:53 PM 23.0 °F 13.1 °F 19.9 °F 88% 29.70 in 6.0 mi ENE 9.2 mph - N/A   Overcast
4:53 PM 21.9 °F 11.0 °F 19.0 °F 89% 29.66 in 7.0 mi ENE 10.4 mph - N/A   Overcast
5:53 PM 21.0 °F 10.6 °F 18.0 °F 88% 29.66 in 7.0 mi ENE 9.2 mph - N/A   Overcast
6:53 PM 21.0 °F 11.4 °F 18.0 °F 88% 29.65 in 7.0 mi ENE 8.1 mph - N/A   Overcast
7:06 PM 21.2 °F 12.6 °F 17.6 °F 86% 29.63 in 7.0 mi ENE 6.9 mph - N/A   Overcast
7:53 PM 21.0 °F 13.4 °F 17.1 °F 85% 29.64 in 9.0 mi East 5.8 mph - N/A   Overcast
8:53 PM 21.0 °F 13.4 °F 17.1 °F 85% 29.64 in 9.0 mi ENE 5.8 mph - N/A   Overcast
9:21 PM 21.2 °F 12.6 °F 17.6 °F 86% 29.62 in 9.0 mi ENE 6.9 mph - N/A   Overcast
9:37 PM 21.2 °F 13.6 °F 17.6 °F 86% 29.61 in 9.0 mi East 5.8 mph - N/A   Overcast
9:51 PM 21.2 °F 14.9 °F 17.6 °F 86% 29.61 in 9.0 mi ENE 4.6 mph - N/A   Overcast
9:53 PM 21.0 °F 13.4 °F 17.1 °F 85% 29.63 in 9.0 mi East 5.8 mph - N/A   Overcast
10:14 PM 21.2 °F 13.6 °F 17.6 °F 86% 29.61 in 9.0 mi ENE 5.8 mph - N/A   Overcast
10:53 PM 19.9 °F 12.1 °F 16.0 °F 85% 29.62 in 10.0 mi East 5.8 mph - N/A   Overcast
11:53 PM 21.0 °F 14.6 °F 16.0 °F 81% 29.61 in 9.0 mi ESE 4.6 mph - N/A   Overcast